STARLINK-34308

Last updated on Sat Jul 05 2025 00:02:05 GMT+0000 (Coordinated Universal Time)

1 64258U 25120C 25185.29620356 .00026119 00000+0 66042-3 0 9998 2 64258 53.1600 194.8836 0001420 73.8033 286.3128 15.39633958 5773
UTC large
Height (km)
Speed (km/s)
/
Latitude / Longitude
Inclination (degrees)
Orbital Period (minutes)
Azimuth
Elevation
Range (km)
Doppler Factor

Next 0 passes for location: London (51.5072 / 0.1276)

Sorry there are no passes over London.